Home > Weather > Novorossiysk > Past weeks

Flag for Russia Past Weather in Novorossiysk, Russia — Yesterday and Last 2 Weeks

Now
75 °F

Sprinkles. Scattered clouds.


Feels Like: 75 °F
Forecast: 68 / 87 °F
Wind: 13 mph from South

Location: Anapa / Vitiazevo

Current Time: Jun 28, 2016 at 12:38:54 PM

Latest Report: Jun 28, 2016 at 12:00 PM


Visibility: N/A

Pressure: 29.65 "Hg

Humidity: 83%

Dew Point: 70 °F

Location of NovorossiyskLocation

Past Weather in Novorossiysk — Graph

°F

Novorossiysk Temperature Yesterday

Maximum temperature yesterday: 95 °F (at 2:00 PM)
Minimum temperature yesterday: 70 °F (at 10:00 PM)
Average temperature yesterday: 82 °F

High & Low Weather Summary for the Past Weeks

 TemperatureHumidityPressure
High97 °F (Jun 20, 2:30 PM)100% (Jun 15, 10:00 PM)30.12 "Hg (Jun 15, 10:00 PM)
Low59 °F (Jun 13, 9:30 PM)24% (Jun 13, 6:00 PM)29.59 "Hg (Jun 14, 12:30 PM)
Average78 °F68%29.92 "Hg
* Reported Jun 13 11:00 AM — Jun 28 11:00 AM, Novorossiysk, Weather by CustomWeather, © 2016

Note: Actual official high and low records may vary slightly from our data, if they occured in-between our weather recording intervals... More about our weather records

Advertising

Novorossiysk Weather History for the Previous 24 Hours

Scroll right to see more
 ConditionsComfort  
Time TempWeatherWind HumidityBarometerVisibility
11:00 AM
Tue, Jun 28
73 °FSprinkles. Scattered clouds.8 mph83%29.65 "HgN/A
10:00 AM79 °FPassing clouds.6 mph74%29.62 "HgN/A
9:30 AM81 °FScattered clouds.8 mph74%29.62 "HgN/A
9:00 AM81 °FScattered clouds.13 mph74%29.62 "HgN/A
8:30 AM81 °FScattered clouds.10 mph74%29.62 "HgN/A
8:00 AM81 °FPassing clouds.10 mph79%29.62 "HgN/A
7:30 AM79 °FPassing clouds.13 mph79%29.62 "HgN/A
7:00 AM79 °FSunny.8 mph84%29.62 "HgN/A
6:30 AM77 °FSunny.6 mph89%29.62 "Hg4 mi
6:00 AM75 °FSunny.3 mph89%29.62 "Hg5 mi
5:00 AM75 °FSunny.6 mph89%29.62 "Hg5 mi
4:00 AM75 °FClear.8 mph89%29.62 "Hg4 mi
3:30 AM75 °FClear.8 mph89%29.62 "Hg4 mi
3:00 AM73 °FClear.6 mph78%29.62 "HgN/A
2:30 AM72 °FClear.6 mph78%29.62 "HgN/A
2:00 AM73 °FClear.10 mph74%29.62 "HgN/A
1:30 AM72 °FClear.6 mph78%29.62 "Hg10 mi
1:00 AM72 °FClear.6 mph78%29.62 "Hg10 mi
12:30 AM73 °FClear.3 mph74%29.62 "Hg10 mi
12:00 AM72 °FClear.1 mph78%29.62 "Hg10 mi
11:30 PM
Mon, Jun 27
72 °FClear.1 mph83%29.62 "Hg10 mi
11:00 PM72 °FClear.1 mph83%29.62 "Hg10 mi
10:30 PM70 °FClear.6 mph88%29.65 "Hg10 mi
10:00 PM70 °FClear.6 mph88%29.65 "Hg10 mi
9:30 PM72 °FClear.1 mph83%29.65 "Hg10 mi
9:00 PM73 °FClear.No wind78%29.65 "Hg10 mi
8:30 PM77 °FClear.1 mph74%29.65 "Hg10 mi
8:00 PM82 °FSunny.1 mph62%29.65 "Hg10 mi
7:30 PM82 °FSunny.3 mph66%29.65 "Hg10 mi
7:00 PM86 °FSunny.6 mph52%29.65 "Hg10 mi
6:30 PM88 °FSunny.8 mph49%29.68 "Hg10 mi
6:00 PM88 °FSunny.8 mph49%29.68 "Hg10 mi
5:00 PM90 °FSunny.6 mph43%29.68 "Hg10 mi
4:00 PM95 °FPassing clouds.8 mph39%29.71 "HgN/A
3:30 PM95 °FPassing clouds.10 mph39%29.71 "HgN/A
3:00 PM95 °FPassing clouds.10 mph39%29.71 "HgN/A
2:30 PM95 °FPassing clouds.13 mph36%29.71 "HgN/A
2:00 PM95 °FPassing clouds.13 mph36%29.71 "HgN/A
1:30 PM93 °FPassing clouds.15 mph36%29.71 "HgN/A
1:00 PM93 °FSunny.17 mph36%29.74 "Hg10 mi
12:30 PM91 °FSunny.17 mph38%29.74 "Hg10 mi
12:00 PM91 °FPassing clouds.15 mph44%29.74 "HgN/A
Weather by CustomWeather, © 2016

See weather overviewHow to use our weather pages